Location: Archemont
(49.1579°N, 1.7598°E)
Time: 19:37:59
(UTC+00:00)

S-56A Canister/Altair - Pass Details

Date: 19 April 2024
Orbit: 638 x 2488 km, 38.9° (Epoch: 20 May)

Event Time Altitude Azimuth Distance (km) Brightness Sun altitude
Rises 19:27:49 0° 255° (WSW) 3,621 11.9 -6.2°
Reaches altitude 10° 19:30:12 10° 248° (WSW) 2,867 11.1 -6.6°
Maximum altitude 19:36:45 41° 180° (S) 1,875 9.3 -7.5°
Enters shadow 19:46:20 10° 116° (ESE) 4,175 10.6 -8.9°
Drops below altitude 10° 19:46:21 10° 116° (ESE) 4,180 - -8.9°
Sets 19:50:34 0° 110° (ESE) 5,461 - -9.5°
